User: anonymous   Login
Location: Newark
(34.0111°N, 88.4892°W)
Time: 09:08:47
(UTC+00:00)
Language:

CUBESAT XI-V - Orbit

View from above orbital plane
View from above orbital plane
View from above satellite
View from above satellite

Ground track
Ground track

The orbit data is extracted from the following two-line orbital elements,

1 28895U 05043F   20157.86161732 +.00000091 +00000-0 +26324-4 0  9994
2 28895 098.0081 294.5424 0015782 321.0375 038.9689 14.63772591778914
Epoch (UTC): 05 June 2020 20:40:43
Eccentricity: 0.0015782
inclination: 98.0081°
perigee height: 670 km
apogee height: 692 km
right ascension of ascending node: 294.5424°
argument of perigee: 321.0375°
revolutions per day: 14.63772591
mean anomaly at epoch: 38.9689°
orbit number at epoch: 77891

The dashed part of the orbit path shows where the satellite is in the earth's shadow,  

DLR